Chippewa, MI

2:44 AM EDT on October 23, 2019 (GMT -0400)
Chippewa County International

Weather History for KCIU - August, 2019

Change the Weather History Date:

Saturday, August 3, 2019

  Actual Average Record
Temperature  
Mean Temperature 70 °F -  
Max Temperature 81 °F 78 °F 90 °F (1989)
Min Temperature 60 °F 52 °F 39 °F (1978)
Cooling Degree Days 5    
Growing Degree Days 20 (Base 50)    
Moisture  
Dew Point 60 °F    
Average Humidity 77    
Maximum Humidity 100    
Minimum Humidity 52    
Precipitation  
Precipitation 0.00 in - - ()
Sea Level Pressure  
Sea Level Pressure 30.05 in    
Wind  
Wind Speed 5 mph (NW)    
Max Wind Speed 14 mph    
Max Gust Speed -    
Visibility 9 miles    
Events      
Averages and records for this station are not official NWS values.
T = Trace of Precipitation, MM = Missing Value Source: NWS Daily Summary

Daily Weather History Graph

Daily Weather History Graph

Search for Another Location

Airport or City:

Astronomy

Aug. 03, 2019 Rise Set
Actual Time 6:21 AM EDT 9:05 PM EDT
Civil Twilight 5:47 AM EDT 9:40 PM EDT
Nautical Twilight 5:03 AM EDT 10:23 PM EDT
Astronomical Twilight 4:12 AM EDT 11:14 PM EDT
Moon 9:21 AM EDT (8/3) 11:00 PM EDT (8/3)
Length of Visible Light 15h 52m
Length of Day
14h 43m
Waxing Crescent, 10% of the Moon is Illuminated
Aug 3
Waxing Crescent
Aug 7
First Quarter
Aug 15
Full
Aug 23
Last Quarter
Aug 30
New

Hourly Weather History & Observations

Time (EDT) Temp. Heat Index Dew Point Humidity Pressure Visibility Wind Dir Wind Speed Gust Speed Precip Events Conditions
12:56 AM 64.0 °F - 57.9 °F 80% 30.05 in 10.0 mi West 4.6 mph - N/A   Clear
1:25 AM 62.6 °F - 57.2 °F 82% 30.06 in 0.5 mi Calm Calm - N/A   Haze
1:35 AM 62.6 °F - 57.2 °F 82% 30.06 in 0.8 mi WSW 3.5 mph - N/A   Haze
1:44 AM 62.6 °F - 57.2 °F 82% 30.06 in 10.0 mi SW 3.5 mph - N/A   Clear
1:56 AM 62.1 °F - 57.9 °F 86% 30.05 in 9.0 mi SSW 3.5 mph - N/A   Clear
2:25 AM 62.6 °F - 57.2 °F 82% 30.07 in 1.0 mi WSW 3.5 mph - N/A   Clear
2:33 AM 62.6 °F - 59.0 °F 88% 30.07 in 7.0 mi West 3.5 mph - N/A   Clear
2:56 AM 62.1 °F - 59.0 °F 90% 30.06 in 10.0 mi SW 5.8 mph - N/A   Clear
3:56 AM 61.0 °F - 59.0 °F 93% 30.05 in 10.0 mi WSW 4.6 mph - N/A   Clear
4:56 AM 60.1 °F - 59.0 °F 96% 30.06 in 10.0 mi West 6.9 mph - N/A   Clear
5:56 AM 60.1 °F - 59.0 °F 96% 30.06 in 10.0 mi West 3.5 mph - N/A   Clear
6:45 AM 60.8 °F - 60.8 °F 100% 30.07 in 10.0 mi West 3.5 mph - N/A   Mostly Cloudy
6:56 AM 61.0 °F - 60.1 °F 97% 30.06 in 10.0 mi West 3.5 mph - N/A   Overcast
7:13 AM 60.8 °F - 60.8 °F 100% 30.07 in 10.0 mi West 3.5 mph - N/A   Overcast
7:56 AM 63.0 °F - 61.0 °F 93% 30.06 in 10.0 mi West 3.5 mph - N/A   Overcast
8:56 AM 66.0 °F - 63.0 °F 90% 30.07 in 10.0 mi North 8.1 mph - N/A   Overcast
9:21 AM 66.2 °F - 62.6 °F 88% 30.09 in 10.0 mi North 10.4 mph - N/A   Overcast
9:56 AM 69.1 °F - 63.0 °F 81% 30.07 in 10.0 mi North 8.1 mph - N/A   Mostly Cloudy
10:21 AM 69.8 °F - 64.4 °F 83% 30.08 in 10.0 mi Variable 5.8 mph - N/A   Partly Cloudy
10:56 AM 72.0 °F - 64.9 °F 78% 30.07 in 10.0 mi North 6.9 mph - N/A   Clear
11:56 AM 75.0 °F - 64.9 °F 71% 30.06 in 10.0 mi North 6.9 mph - N/A   Partly Cloudy
12:30 PM 78.8 °F - 64.4 °F 61% 30.06 in 10.0 mi North 11.5 mph - N/A   Mostly Cloudy
12:56 PM 77.0 °F - 64.9 °F 66% 30.06 in 10.0 mi Variable 6.9 mph - N/A   Mostly Cloudy
1:52 PM 78.8 °F - 64.4 °F 61% 30.06 in 10.0 mi North 10.4 mph - N/A   Scattered Clouds
1:56 PM 78.1 °F - 64.0 °F 62% 30.05 in 10.0 mi North 8.1 mph - N/A   Scattered Clouds
2:56 PM 80.1 °F 81.5 °F 63.0 °F 56% 30.03 in 10.0 mi NNE 8.1 mph - N/A   Clear
3:56 PM 80.1 °F 81.1 °F 61.0 °F 52% 30.03 in 10.0 mi NNW 12.7 mph - N/A   Clear
4:56 PM 79.0 °F - 63.0 °F 58% 30.03 in 10.0 mi NNW 11.5 mph - N/A   Clear
5:56 PM 78.1 °F - 59.0 °F 52% 30.01 in 10.0 mi NNW 12.7 mph - N/A   Clear
6:56 PM 73.9 °F - 57.9 °F 57% 30.02 in 10.0 mi NNW 13.8 mph - N/A   Clear
7:56 PM 71.1 °F - 55.0 °F 57% 30.03 in 10.0 mi NNW 10.4 mph - N/A   Clear
8:56 PM 68.0 °F - 54.0 °F 61% 30.04 in 10.0 mi NNW 4.6 mph - N/A   Clear
9:56 PM 64.0 °F - 52.0 °F 65% 30.04 in 10.0 mi NW 4.6 mph - N/A   Clear
10:56 PM 62.1 °F - 52.0 °F 70% 30.04 in 10.0 mi NNW 5.8 mph - N/A   Clear
11:56 PM 61.0 °F - 52.0 °F 72% 30.05 in 10.0 mi NNW 5.8 mph - N/A   Clear